VK5ALG-13 Weather Reports


time (UTC)temp
C
wind
direction
speed
KPH
gust
KPH
rain 1hr
cm
rain 24hr
cm
rain mn
cm
humidity
%
barometer
mb
20260510082522 15 215 1.6 4.8 0.00 0.00 0.00 71 1029.7
20260510081518 15 234 1.6 3.2 0.00 0.00 0.00 70 1029.6
20260510080535 15 239 1.6 4.8 0.00 0.00 0.00 70 1029.6
20260510075531 15 214 1.6 3.2 0.00 0.00 0.00 70 1029.4
20260510074527 15 246 0.0 3.2 0.00 0.00 0.00 68 1029.3
20260510073523 16 218 1.6 3.2 0.00 0.00 0.00 66 1029.3
20260510072520 16 200 1.6 4.8 0.00 0.00 0.00 64 1029.2
20260510071536 16 247 0.0 3.2 0.00 0.00 0.00 65 1029.2
20260510070533 16 202 0.0 4.8 0.00 0.00 0.00 65 1029.2
20260510065529 16 211 1.6 4.8 0.00 0.00 0.00 64 1029.2
20260510064525 16 191 3.2 6.4 0.00 0.00 0.00 63 1029.2
20260510063542 16 204 3.2 6.4 0.00 0.00 0.00 63 1029.0
20260510062517 17 194 3.2 6.4 0.00 0.00 0.00 62 1029.0
20260510061534 17 224 3.2 6.4 0.00 0.00 0.00 60 1028.9
20260510060530 17 185 1.6 4.8 0.00 0.00 0.00 60 1028.9
20260510055527 18 224 1.6 4.8 0.00 0.00 0.00 59 1028.9
20260510054523 19 236 1.6 6.4 0.00 0.00 0.00 56 1028.8
20260510053519 18 274 1.6 3.2 0.00 0.00 0.00 59 1028.8
20260510052616 18 222 0.0 3.2 0.00 0.00 0.00 59 1028.9
20260510051612 18 274 0.0 3.2 0.00 0.00 0.00 58 1028.8
20260510050528 18 99 1.6 3.2 0.00 0.00 0.00 57 1028.8
20260510045545 18 274 1.6 3.2 0.00 0.00 0.00 58 1028.9
20260510044521 17 218 1.6 3.2 0.00 0.00 0.00 59 1028.9
20260510043517 17 235 0.0 1.6 0.00 0.00 0.00 59 1028.9
20260510042533 18 92 0.0 1.6 0.00 0.00 0.00 60 1028.9
20260510041538 18 244 0.0 4.8 0.00 0.00 0.00 59 1028.9
20260510040525 17 205 0.0 1.6 0.00 0.00 0.00 60 1028.9
20260510035522 17 78 3.2 4.8 0.00 0.00 0.00 60 1029.0
20260510034518 18 234 1.6 4.8 0.00 0.00 0.00 58 1029.2
20260510033555 20 258 0.0 3.2 0.00 0.00 0.00 55 1029.3
20260510032530 20 59 1.6 3.2 0.00 0.00 0.00 56 1029.4
20260510031527 18 79 1.6 3.2 0.00 0.00 0.00 61 1029.4
20260510030522 18 85 3.2 4.8 0.00 0.00 0.00 60 1029.5
20260510025540 18 79 1.6 3.2 0.00 0.00 0.00 60 1029.6
20260510023023 17 48 0.0 3.2 0.00 0.03 0.00 61 1030.2
20260510022019 18 65 1.6 4.8 0.00 0.03 0.00 61 1030.3
20260510021035 17 148 0.0 1.6 0.00 0.03 0.00 61 1030.4
20260510020032 17 70 1.6 4.8 0.00 0.03 0.00 62 1030.6
20260510015028 17 255 0.0 3.2 0.00 0.03 0.00 61 1030.6
20260510014025 17 36 0.0 3.2 0.00 0.03 0.00 63 1030.8
20260510013041 16 255 0.0 1.6 0.00 0.03 0.00 64 1030.7
20260510012018 16 76 1.6 3.2 0.00 0.03 0.00 66 1030.8
20260510011034 16 77 0.0 1.6 0.00 0.03 0.00 66 1030.8
20260510010030 15 84 0.0 3.2 0.00 0.03 0.00 68 1030.8
20260510005027 15 84 3.2 4.8 0.00 0.03 0.00 68 1030.8
20260510004103 15 87 1.6 4.8 0.00 0.03 0.00 71 1030.8
20260510003019 15 81 1.6 6.4 0.00 0.03 0.00 71 1030.8
20260510002056 15 74 1.6 1.6 0.00 0.03 0.00 73 1030.8
20260510001032 15 89 1.6 4.8 0.00 0.03 0.00 75 1030.9
20260510000028 15 88 1.6 4.8 0.00 0.03 0.00 80 1030.9
20260509235024 14 85 0.0 3.2 0.00 0.03 0.00 85 1030.9
20260509234021 13 88 1.6 3.2 0.00 0.03 0.00 89 1031.0
20260509233017 13 0.0 0.0 0.00 0.03 0.00 92 1030.9
20260509232034 13 0.0 0.0 0.00 0.03 0.00 94 1031.0
20260509231030 12 0.0 0.0 0.00 0.03 0.00 95 1030.8
20260509230027 12 0.0 0.0 0.00 0.03 0.00 96 1030.8
20260509225023 12 0.0 0.0 0.00 0.03 0.00 96 1030.7
20260509224040 11 0.0 0.0 0.00 0.03 0.00 96 1030.6
20260509223056 11 0.0 0.0 0.00 0.03 0.00 96 1030.5
20260509222035 11 0.0 0.0 0.00 0.03 0.00 96 1030.3
20260509221029 11 0.0 0.0 0.00 0.03 0.00 96 1030.3
20260509220025 11 0.0 0.0 0.00 0.03 0.00 96 1030.1
20260509215022 10 0.0 0.0 0.00 0.03 0.00 96 1030.0
20260509214019 10 0.0 0.0 0.00 0.03 0.00 96 1029.8
20260509213035 10 0.0 0.0 0.00 0.03 0.00 96 1029.7
20260509212032 10 0.0 0.0 0.00 0.03 0.00 96 1029.6
20260509211028 10 0.0 0.0 0.00 0.03 0.00 96 1029.6
20260509210024 10 0.0 0.0 0.00 0.03 0.00 96 1029.5
20260509205021 9 0.0 0.0 0.00 0.03 0.00 96 1029.4
20260509204017 9 0.0 0.0 0.00 0.03 0.00 96 1029.3
20260509203033 9 0.0 0.0 0.00 0.03 0.00 96 1029.3
20260509202030 8 92 0.0 1.6 0.00 0.03 0.00 96 1029.3
20260509201026 8 0.0 0.0 0.00 0.03 0.00 96 1029.1
20260509200023 8 0.0 0.0 0.00 0.03 0.00 96 1029.1
20260509195019 8 0.0 0.0 0.00 0.03 0.00 96 1029.0
20260509194056 8 0.0 0.0 0.00 0.03 0.00 96 1028.9
20260509193052 8 0.0 0.0 0.00 0.03 0.00 96 1028.9
20260509192049 8 0.0 0.0 0.00 0.03 0.00 96 1028.8
20260509191025 8 0.0 0.0 0.00 0.03 0.00 96 1028.8
20260509190021 8 0.0 0.0 0.00 0.03 0.00 96 1028.7
20260509185017 8 0.0 0.0 0.00 0.03 0.00 95 1028.6
20260509184034 8 0.0 0.0 0.00 0.03 0.00 95 1028.5
20260509183031 8 0.0 0.0 0.00 0.03 0.00 95 1028.6
20260509182027 8 0.0 0.0 0.00 0.03 0.00 95 1028.6
20260509181023 8 0.0 0.0 0.00 0.03 0.00 95 1028.6
20260509180020 9 0.0 0.0 0.00 0.03 0.00 95 1028.5
20260509175036 9 0.0 0.0 0.00 0.03 0.00 95 1028.6
20260509174032 9 0.0 0.0 0.00 0.03 0.00 95 1028.5
20260509173029 9 0.0 0.0 0.00 0.03 0.00 95 1028.5
20260509172026 9 0.0 0.0 0.00 0.03 0.00 95 1028.5
20260509171022 10 90 0.0 1.6 0.00 0.03 0.00 95 1028.6
20260509170018 10 192 0.0 1.6 0.00 0.03 0.00 95 1028.6
20260509165035 10 91 0.0 1.6 0.00 0.03 0.00 95 1028.6
20260509164031 10 0.0 0.0 0.00 0.03 0.00 95 1028.7
20260509163028 10 91 0.0 1.6 0.00 0.03 0.00 95 1028.9
20260509162024 10 91 0.0 3.2 0.00 0.03 0.00 95 1028.9
20260509161021 10 186 0.0 1.6 0.00 0.03 0.00 95 1029.0
20260509160017 10 0.0 0.0 0.00 0.03 0.00 95 1029.0
20260509155034 10 0.0 0.0 0.00 0.03 0.00 94 1029.0
20260509154031 10 0.0 0.0 0.00 0.03 0.00 94 1029.1
20260509153047 10 0.0 0.0 0.00 0.03 0.00 94 1029.0
20260509152024 10 0.0 0.0 0.00 0.03 0.00 94 1029.1
20260509151020 10 0.0 0.0 0.00 0.03 0.00 94 1029.1
20260509150036 10 0.0 0.0 0.00 0.03 0.00 94 1029.1
20260509145033 10 0.0 0.0 0.00 0.03 0.00 94 1029.3
20260509144109 9 186 0.0 1.6 0.00 0.03 0.00 94 1029.2
20260509143026 9 0.0 0.0 0.00 0.03 0.03 94 1029.3
20260509142022 9 0.0 0.0 0.00 0.03 0.03 94 1029.3
20260509141018 9 0.0 0.0 0.00 0.03 0.03 93 1029.4
20260509140035 10 0.0 0.0 0.00 0.03 0.03 93 1029.4
20260509135032 10 0.0 0.0 0.00 0.03 0.03 93 1029.3
20260509134028 10 186 0.0 1.6 0.00 0.03 0.03 93 1029.3
20260509133025 10 0.0 0.0 0.00 0.03 0.03 93 1029.4
20260509132021 10 0.0 0.0 0.00 0.03 0.03 93 1029.4
20260509131017 10 84 0.0 1.6 0.00 0.03 0.03 93 1029.3
20260509130034 10 84 0.0 1.6 0.00 0.03 0.03 93 1029.4
20260509125031 10 0.0 0.0 0.00 0.03 0.03 93 1029.5
20260509124027 10 0.0 0.0 0.00 0.03 0.03 92 1029.5
20260509123023 10 73 0.0 1.6 0.00 0.03 0.03 92 1029.5
20260509122020 10 0.0 0.0 0.00 0.03 0.03 92 1029.5
20260509121036 10 0.0 0.0 0.00 0.03 0.03 92 1029.3
20260509120032 10 0.0 0.0 0.00 0.03 0.03 92 1029.3
20260509115029 11 0.0 0.0 0.00 0.03 0.03 92 1029.3
20260509114026 11 0.0 0.0 0.00 0.03 0.03 92 1029.1
20260509113043 11 0.0 0.0 0.00 0.03 0.03 91 1029.2
20260509112018 11 0.0 0.0 0.00 0.03 0.03 91 1029.3
20260509111055 11 0.0 0.0 0.00 0.03 0.03 91 1029.3
20260509110031 11 0.0 0.0 0.00 0.03 0.03 91 1029.4
20260509105048 11 0.0 0.0 0.00 0.03 0.03 91 1029.3
20260509104024 11 0.0 0.0 0.00 0.03 0.03 90 1029.2
20260509103021 12 0.0 0.0 0.00 0.03 0.03 91 1029.2
20260509102017 12 0.0 0.0 0.00 0.03 0.03 91 1029.2
20260509101033 12 0.0 0.0 0.00 0.03 0.03 91 1029.3
20260509100030 12 210 0.0 1.6 0.00 0.03 0.03 92 1029.1
20260509095026 12 177 0.0 3.2 0.00 0.03 0.03 93 1029.2
20260509094024 12 0.0 0.0 0.00 0.03 0.03 92 1029.2
20260509093018 12 0.0 0.0 0.00 0.03 0.03 92 1029.1
20260509092035 12 0.0 0.0 0.00 0.03 0.03 92 1029.1
20260509091031 12 0.0 0.0 0.00 0.03 0.03 91 1029.1
20260509090048 12 0.0 0.0 0.00 0.03 0.03 91 1029.1
20260509085024 13 0.0 0.0 0.00 0.03 0.03 90 1029.0
20260509084021 13 0.0 0.0 0.00 0.03 0.03 90 1029.0